CW4114 Weather Reports


time (UTC)temp
C
wind
direction
speed
KPH
gust
KPH
rain 1hr
cm
rain 24hr
cm
rain mn
cm
humidity
%
barometer
mb
20260906081957 13 272 1.6 4.8 0.00 0.00 0.00 95 1017.8
20260906081456 13 272 1.6 4.8 0.00 0.00 0.00 94 1017.7
20260906080959 13 254 1.6 3.2 0.00 0.00 0.00 94 1017.7
20260906080459 13 250 1.6 1.6 0.00 0.00 0.00 94 1017.7
20260906075953 13 262 1.6 3.2 0.00 0.00 0.00 94 1017.7
20260906075717 13 265 0.0 3.2 0.00 0.00 0.00 94 1017.8
20260906074952 13 265 1.6 3.2 0.00 0.00 0.00 94 1017.7
20260906074449 13 267 1.6 4.8 0.00 0.00 0.00 94 1017.7
20260906073949 13 272 1.6 4.8 0.00 0.00 0.00 94 1017.7
20260906073444 13 275 3.2 4.8 0.00 0.00 0.00 93 1017.8
20260906073213 13 276 1.6 3.2 0.00 0.00 0.00 93 1017.7
20260906072443 13 276 1.6 3.2 0.00 0.00 0.00 93 1017.7
20260906071942 13 274 1.6 4.8 0.00 0.00 0.00 93 1017.8
20260906071715 13 274 3.2 4.8 0.00 0.00 0.00 93 1017.7
20260906071206 13 276 1.6 4.8 0.00 0.00 0.00 93 1017.8
20260906070437 13 275 3.2 4.8 0.00 0.00 0.00 92 1017.8
20260906065935 13 265 3.2 4.8 0.00 0.00 0.00 92 1017.7
20260906065658 13 285 1.6 3.2 0.00 0.00 0.00 92 1017.6
20260906064934 13 271 1.6 3.2 0.00 0.00 0.00 91 1017.7
20260906064436 13 265 1.6 3.2 0.00 0.00 0.00 91 1017.7
20260906063932 14 265 0.0 3.2 0.00 0.00 0.00 91 1017.7
20260906063436 14 272 0.0 4.8 0.00 0.00 0.00 91 1017.7
20260906062933 14 278 1.6 4.8 0.00 0.00 0.00 91 1017.8
20260906062433 14 276 1.6 4.8 0.00 0.00 0.00 91 1017.8
20260906061932 14 282 1.6 3.2 0.00 0.00 0.00 91 1017.8
20260906061433 14 286 1.6 3.2 0.00 0.00 0.00 90 1017.8
20260906060935 14 279 1.6 3.2 0.00 0.00 0.00 90 1017.7
20260906060432 14 271 3.2 4.8 0.00 0.00 0.00 90 1017.8
20260906055932 14 271 1.6 4.8 0.00 0.00 0.00 89 1017.8
20260906055433 14 267 3.2 4.8 0.00 0.00 0.00 89 1017.8
20260906054932 14 271 3.2 4.8 0.00 0.00 0.00 89 1017.7
20260906054432 14 285 3.2 6.4 0.00 0.00 0.00 89 1017.8
20260906053933 14 267 3.2 6.4 0.00 0.00 0.00 89 1017.7
20260906053159 14 279 3.2 6.4 0.00 0.00 0.00 89 1017.7
20260906052437 14 275 3.2 6.4 0.00 0.00 0.00 89 1017.6
20260906052200 14 267 3.2 6.4 0.00 0.00 0.00 89 1017.6
20260906051659 14 271 1.6 4.8 0.00 0.00 0.00 88 1017.6
20260906050932 14 261 0.0 4.8 0.00 0.00 0.00 88 1017.4
20260906050432 14 276 3.2 4.8 0.00 0.00 0.00 88 1017.4
20260906045932 14 272 3.2 4.8 0.00 0.00 0.00 88 1017.4
20260906045432 14 281 3.2 4.8 0.00 0.00 0.00 87 1017.2
20260906044932 14 283 3.2 4.8 0.00 0.00 0.00 87 1017.4
20260906044435 15 275 1.6 4.8 0.00 0.00 0.00 86 1017.4
20260906044205 15 278 3.2 4.8 0.00 0.00 0.00 86 1017.4
20260906043656 15 278 3.2 4.8 0.00 0.00 0.00 86 1017.3
20260906042932 15 278 3.2 4.8 0.00 0.00 0.00 85 1017.3
20260906042452 15 271 1.6 4.8 0.00 0.00 0.00 85 1017.2
20260906041700 15 283 3.2 6.4 0.00 0.00 0.00 86 1017.4
20260906040429 15 285 3.2 6.4 0.00 0.00 0.00 86 1017.2
20260906035927 15 288 3.2 8.0 0.00 0.00 0.00 86 1017.3
20260906035655 15 279 4.8 8.0 0.00 0.00 0.00 87 1017.2
20260906034928 15 289 3.2 6.4 0.00 0.00 0.00 88 1017.1
20260906034427 15 283 4.8 6.4 0.00 0.00 0.00 88 1017.2
20260906033917 15 272 3.2 6.4 0.00 0.00 0.00 87 1017.0
20260906033414 15 252 3.2 4.8 0.00 0.00 0.00 88 1017.0
20260906032913 15 258 1.6 3.2 0.00 0.00 0.00 87 1017.1
20260906032412 15 230 1.6 3.2 0.00 0.00 0.00 87 1017.0
20260906031913 15 247 1.6 3.2 0.00 0.00 0.00 86 1017.1
20260906031412 15 262 3.2 3.2 0.00 0.00 0.00 86 1016.9
20260906030911 15 275 1.6 3.2 0.00 0.00 0.00 86 1016.9
20260906030636 15 236 0.0 0.0 0.00 0.00 0.00 85 1016.9
20260906025912 15 226 0.0 8.0 0.00 0.00 0.00 85 1016.9
20260906025411 15 9 0.0 8.0 0.00 0.00 0.00 85 1016.9
20260906024912 15 262 0.0 4.8 0.00 0.00 0.00 85 1016.9
20260906024410 15 271 1.6 4.8 0.00 0.00 0.00 85 1016.8
20260906023909 15 283 3.2 4.8 0.00 0.00 0.00 85 1016.8
20260906023409 15 269 3.2 4.8 0.00 0.00 0.00 84 1016.7
20260906022908 16 265 3.2 4.8 0.00 0.00 0.00 84 1016.8
20260906022407 16 223 3.2 6.4 0.00 0.00 0.00 84 1016.7
20260906021907 16 259 1.6 6.4 0.00 0.00 0.00 84 1016.8
20260906021637 16 279 4.8 6.4 0.00 0.00 0.00 85 1016.8
20260906021139 16 281 3.2 6.4 0.00 0.00 0.00 84 1016.7
20260906020408 16 259 3.2 6.4 0.00 0.00 0.00 84 1016.8
20260906015406 16 285 3.2 4.8 0.00 0.00 0.00 84 1016.8
20260906014906 16 247 1.6 4.8 0.00 0.00 0.00 83 1016.8
20260906014406 16 251 3.2 6.4 0.00 0.00 0.00 83 1016.8
20260906013907 16 261 3.2 6.4 0.00 0.00 0.00 84 1016.6
20260906013635 16 281 3.2 6.4 0.00 0.00 0.00 84 1016.7
20260906012903 16 274 3.2 4.8 0.00 0.00 0.00 84 1016.6
20260906012631 16 264 3.2 4.8 0.00 0.00 0.00 83 1016.7
20260906011903 16 271 3.2 4.8 0.00 0.00 0.00 83 1016.6
20260906011404 16 236 1.6 4.8 0.00 0.00 0.00 83 1016.5
20260906011325 17 251 3.2 4.8 0.00 0.00 0.00 82 1016.5
20260906010405 17 274 3.2 4.8 0.00 0.00 0.00 82 1016.5
20260906005904 17 268 3.2 3.2 0.00 0.00 0.00 81 1016.4
20260906005405 17 234 1.6 3.2 0.00 0.00 0.00 80 1016.5
20260906004903 17 252 1.6 3.2 0.00 0.00 0.00 80 1016.5
20260906004402 17 258 0.0 4.8 0.00 0.00 0.00 80 1016.4
20260906004128 18 269 3.2 4.8 0.00 0.00 0.00 79 1016.4
20260906003629 18 271 3.2 4.8 0.00 0.00 0.00 79 1016.5
20260906003130 18 259 3.2 4.8 0.00 0.00 0.00 78 1016.4
20260906002359 18 261 1.6 4.8 0.00 0.00 0.00 77 1016.4
20260906001859 18 278 1.6 3.2 0.00 0.00 0.00 75 1016.3
20260906001359 18 271 1.6 3.2 0.00 0.00 0.00 74 1016.3
20260906000901 19 269 1.6 3.2 0.00 0.00 0.00 73 1016.3
20260906000421 19 269 0.0 1.6 0.00 0.00 0.00 72 1016.2
20260905235856 19 269 0.0 1.6 0.00 0.00 0.00 71 1016.2
20260905235355 20 268 1.6 1.6 0.00 0.00 0.00 70 1016.2
20260905234855 20 76 0.0 0.0 0.00 0.00 0.00 68 1016.2
20260905234622 20 79 0.0 0.0 0.00 0.00 0.00 65 1016.3
20260905233856 20 75 0.0 0.0 0.00 0.00 0.00 64 1016.4
20260905233355 20 75 0.0 0.0 0.00 0.00 0.00 63 1016.5
20260905232853 20 75 0.0 0.0 0.00 0.00 0.00 61 1016.5
20260905232346 20 75 0.0 0.0 0.00 0.00 0.00 61 1016.5
20260905231848 20 75 0.0 0.0 0.00 0.00 0.00 61 1016.5
20260905231344 21 75 0.0 0.0 0.00 0.00 0.00 60 1016.5
20260905230844 21 76 0.0 0.0 0.00 0.00 0.00 58 1016.5
20260905230343 21 76 0.0 0.0 0.00 0.00 0.00 57 1016.5
20260905225842 21 73 0.0 3.2 0.00 0.00 0.00 58 1016.6
20260905225341 21 100 0.0 3.2 0.00 0.00 0.00 60 1016.6
20260905224842 21 104 1.6 3.2 0.00 0.00 0.00 59 1016.5
20260905224342 21 107 1.6 3.2 0.00 0.00 0.00 57 1016.5
20260905223839 21 97 1.6 3.2 0.00 0.00 0.00 58 1016.5
20260905223340 21 72 0.0 1.6 0.00 0.00 0.00 59 1016.5
20260905222840 21 68 0.0 4.8 0.00 0.00 0.00 60 1016.5
20260905222339 21 72 1.6 4.8 0.00 0.00 0.00 59 1016.4
20260905221839 21 42 0.0 3.2 0.00 0.00 0.00 61 1016.5
20260905221338 21 83 0.0 3.2 0.00 0.00 0.00 60 1016.5
20260905220838 21 83 1.6 3.2 0.00 0.00 0.00 61 1016.6
20260905220341 21 73 1.6 3.2 0.00 0.00 0.00 60 1016.5
20260905215840 21 61 1.6 3.2 0.00 0.00 0.00 61 1016.5
20260905215339 21 12 0.0 3.2 0.00 0.00 0.00 59 1016.4
20260905214841 21 59 1.6 4.8 0.00 0.00 0.00 61 1016.4
20260905214339 21 65 1.6 4.8 0.00 0.00 0.00 63 1016.4
20260905213840 21 68 3.2 6.4 0.00 0.00 0.00 63 1016.3
20260905213339 21 65 3.2 6.4 0.00 0.00 0.00 63 1016.3
20260905212840 21 80 3.2 6.4 0.00 0.00 0.00 61 1016.4
20260905212607 21 62 3.2 6.4 0.00 0.00 0.00 61 1016.3
20260905211839 21 54 3.2 6.4 0.00 0.00 0.00 60 1016.4
20260905211338 22 65 3.2 6.4 0.00 0.00 0.00 59 1016.4
20260905210842 22 71 3.2 6.4 0.00 0.00 0.00 59 1016.4
20260905210337 22 78 3.2 6.4 0.00 0.00 0.00 58 1016.4
20260905205838 22 66 3.2 6.4 0.00 0.00 0.00 60 1016.4
20260905205338 22 87 3.2 8.0 0.00 0.00 0.00 60 1016.3
20260905204837 22 79 3.2 8.0 0.00 0.00 0.00 59 1016.3
20260905204336 22 42 3.2 6.4 0.00 0.00 0.00 60 1016.2
20260905203839 22 73 4.8 6.4 0.00 0.00 0.00 61 1016.1
20260905203337 22 65 4.8 6.4 0.00 0.00 0.00 61 1016.2
20260905202838 22 78 3.2 6.4 0.00 0.00 0.00 62 1016.2
20260905202337 22 79 1.6 6.4 0.00 0.00 0.00 66 1016.2
20260905201838 22 89 3.2 6.4 0.00 0.00 0.00 72 1016.1
20260905201337 22 76 4.8 8.0 0.00 0.00 0.00 70 1016.3
20260905200840 22 73 4.8 8.0 0.00 0.00 0.00 70 1016.2
20260905200339 22 76 4.8 8.0 0.00 0.00 0.00 72 1016.3
20260905195838 22 61 3.2 8.0 0.00 0.00 0.00 71 1016.3
20260905195556 22 37 3.2 8.0 0.00 0.00 0.00 72 1016.4
20260905194834 22 54 3.2 8.0 0.00 0.00 0.00 69 1016.5
20260905194610 21 12 4.8 8.0 0.00 0.00 0.00 71 1016.6
20260905193835 21 28 1.6 6.4 0.00 0.00 0.00 74 1016.7
20260905192837 20 48 3.2 6.4 0.00 0.00 0.00 80 1016.9
20260905192602 21 24 3.2 6.4 0.00 0.00 0.00 77 1016.8
20260905191838 21 28 4.8 8.0 0.00 0.00 0.00 78 1016.7
20260905191333 21 21 1.6 8.0 0.00 0.00 0.00 76 1016.8
20260905190835 21 4 3.2 8.0 0.00 0.00 0.00 79 1017.0
20260905190335 21 34 4.8 9.7 0.00 0.00 0.00 81 1017.0
20260905185835 21 40 3.2 9.7 0.00 0.00 0.00 82 1017.1
20260905185331 21 73 4.8 8.0 0.00 0.00 0.00 82 1017.0
20260905185058 21 21 3.2 8.0 0.00 0.00 0.00 80 1017.0
20260905184335 21 86 4.8 8.0 0.00 0.00 0.00 81 1017.2
20260905183832 21 8 4.8 8.0 0.00 0.00 0.00 82 1017.2
20260905183331 21 24 3.2 8.0 0.00 0.00 0.00 81 1017.0
20260905182831 21 344 4.8 9.7 0.00 0.00 0.00 82 1017.0
20260905182331 21 11 6.4 9.7 0.00 0.00 0.00 78 1017.0
20260905182103 21 72 4.8 9.7 0.00 0.00 0.00 80 1017.0
20260905181331 21 21 1.6 9.7 0.00 0.00 0.00 81 1017.0
20260905180830 21 357 4.8 11.3 0.00 0.00 0.00 82 1017.0
20260905180438 21 44 3.2 8.0 0.00 0.00 0.00 80 1017.0
20260905180423 21 34 4.8 11.3 0.00 0.00 0.00 79 1017.0
20260905180110 22 38 3.2 9.7 0.00 0.00 0.00 81 1017.0
20260905174829 21 72 3.2 9.7 0.00 0.00 0.00 79 1017.1
20260905174330 21 71 3.2 9.7 0.00 0.00 0.00 82 1017.1
20260905173830 21 71 6.4 9.7 0.00 0.00 0.00 83 1017.0
20260905173329 21 48 6.4 9.7 0.00 0.00 0.00 82 1017.0
20260905172829 21 82 4.8 9.7 0.00 0.00 0.00 81 1016.9
20260905172329 21 28 6.4 14.5 0.00 0.00 0.00 81 1016.9
20260905171829 20 65 6.4 14.5 0.00 0.00 0.00 82 1016.9
20260905171327 21 78 9.7 14.5 0.00 0.00 0.00 81 1017.0
20260905171058 21 63 9.7 14.5 0.00 0.00 0.00 81 1017.0
20260905170332 21 62 8.0 14.5 0.00 0.00 0.00 81 1016.9
20260905165826 21 51 6.4 14.5 0.00 0.00 0.00 81 1017.0
20260905165324 21 92 9.7 14.5 0.00 0.00 0.00 81 1017.1
20260905164838 21 78 9.7 14.5 0.00 0.00 0.00 81 1017.0
20260905164326 21 62 6.4 11.3 0.00 0.00 0.00 83 1017.1
20260905163825 21 85 6.4 11.3 0.00 0.00 0.00 81 1017.1
20260905163326 21 75 8.0 14.5 0.00 0.00 0.00 81 1017.3
20260905163052 21 59 6.4 14.5 0.00 0.00 0.00 84 1017.2
20260905162547 21 114 6.4 11.3 0.00 0.00 0.00 81 1017.1
20260905161822 21 63 6.4 14.5 0.00 0.00 0.00 83 1017.2
20260905161321 21 63 9.7 16.1 0.00 0.00 0.00 81 1017.2
20260905160820 20 62 8.0 16.1 0.00 0.00 0.00 83 1017.1
20260905160320 21 35 9.7 14.5 0.00 0.00 0.00 83 1017.2
20260905160043 21 75 8.0 14.5 0.00 0.00 0.00 83 1017.2
20260905155320 21 83 4.8 11.3 0.00 0.00 0.00 84 1017.0
20260905154821 20 83 6.4 14.5 0.00 0.00 0.00 84 1016.9
20260905154318 20 82 9.7 14.5 0.00 0.00 0.00 83 1016.9
20260905154044 21 47 9.7 14.5 0.00 0.00 0.00 83 1016.9
20260905153318 21 63 6.4 11.3 0.00 0.00 0.00 83 1016.9
20260905152816 21 82 6.4 11.3 0.00 0.00 0.00 84 1016.9
20260905152314 21 83 6.4 14.5 0.00 0.00 0.00 84 1016.9
20260905151814 21 89 9.7 14.5 0.00 0.00 0.00 83 1016.8
20260905151314 21 100 6.4 14.5 0.00 0.00 0.00 84 1016.8
20260905150815 21 92 6.4 14.5 0.00 0.00 0.00 85 1016.7
20260905150313 20 51 6.4 17.7 0.00 0.00 0.00 84 1016.7
20260905145813 20 95 9.7 17.7 0.00 0.00 0.00 85 1016.5
20260905145312 20 97 9.7 16.1 0.00 0.00 0.00 85 1016.6
20260905144807 20 92 8.0 14.5 0.00 0.00 0.00 86 1016.6
20260905144307 21 79 9.7 14.5 0.00 0.00 0.00 85 1016.6
20260905143804 21 45 6.4 16.1 0.00 0.00 0.00 86 1016.5
20260905143304 20 92 8.0 16.1 0.00 0.00 0.00 85 1016.6
20260905142306 20 80 6.4 16.1 0.00 0.00 0.00 85 1016.4
20260905141808 20 135 4.8 16.1 0.00 0.00 0.00 86 1016.4
20260905141542 20 73 8.0 16.1 0.00 0.00 0.00 85 1016.2
20260905140805 20 80 6.4 16.1 0.00 0.00 0.00 86 1016.3
20260905140303 20 62 6.4 14.5 0.00 0.00 0.00 87 1016.3
20260905135804 20 78 8.0 14.5 0.00 0.00 0.00 86 1016.3
20260905135307 20 78 6.4 11.3 0.00 0.00 0.00 87 1016.3
20260905134818 20 89 6.4 11.3 0.00 0.00 0.00 88 1016.4
20260905134305 20 73 8.0 11.3 0.00 0.00 0.00 88 1016.4
20260905133802 20 100 6.4 9.7 0.00 0.00 0.00 88 1016.4
20260905133303 20 89 4.8 14.5 0.00 0.00 0.00 88 1016.3
20260905132800 20 44 4.8 14.5 0.00 0.00 0.00 89 1016.3
20260905132300 20 86 4.8 11.3 0.00 0.00 0.00 90 1016.3
20260905131258 20 76 4.8 9.7 0.00 0.00 0.00 92 1016.4
20260905130759 19 110 4.8 9.7 0.00 0.00 0.00 93 1016.2
20260905130523 19 49 4.8 9.7 0.00 0.00 0.00 95 1016.2
20260905125757 19 69 4.8 9.7 0.00 0.00 0.00 95 1016.2
20260905125530 19 92 3.2 8.0 0.00 0.00 0.00 97 1016.2
20260905124755 18 92 4.8 8.0 0.00 0.00 0.00 98 1016.1
20260905124258 18 63 4.8 8.0 0.00 0.00 0.00 99 1016.1
20260905123755 18 75 1.6 8.0 0.00 0.00 0.00 99 1016.0
20260905123256 17 116 1.6 8.0 0.00 0.00 0.00 99 1016.1
20260905122754 17 63 4.8 8.0 0.00 0.00 0.00 99 1016.1
20260905122257 16 58 1.6 8.0 0.00 0.00 0.00 99 1016.1
20260905121753 15 63 1.6 6.4 0.00 0.00 0.00 99 1016.0
20260905121254 15 54 1.6 3.2 0.00 0.00 0.00 98 1016.0
20260905120752 14 290 0.0 0.0 0.00 0.00 0.00 98 1016.0
20260905120251 14 274 0.0 0.0 0.00 0.00 0.00 98 1015.9
20260905115750 13 272 0.0 0.0 0.00 0.03 0.00 98 1015.9
20260905115252 13 272 0.0 0.0 0.00 0.03 0.00 98 1015.9
20260905114751 13 272 0.0 1.6 0.00 0.08 0.00 98 1015.8
20260905114251 13 272 0.0 3.2 0.00 0.08 0.00 98 1015.8
20260905113751 13 272 0.0 3.2 0.00 0.08 0.00 98 1015.8
20260905113250 13 272 0.0 1.6 0.00 0.08 0.00 98 1015.8
20260905112750 13 272 0.0 3.2 0.00 0.08 0.00 98 1015.9
20260905112249 13 282 0.0 3.2 0.00 0.08 0.00 98 1015.8
20260905111749 13 281 0.0 1.6 0.00 0.08 0.00 98 1015.8
20260905111249 13 282 0.0 3.2 0.00 0.08 0.00 98 1015.7
20260905110748 13 282 0.0 3.2 0.00 0.08 0.00 98 1015.7
20260905110515 13 282 0.0 3.2 0.00 0.08 0.00 98 1015.7
20260905105747 13 282 1.6 3.2 0.00 0.08 0.00 98 1015.6
20260905105248 13 285 1.6 3.2 0.00 0.08 0.00 98 1015.6
20260905104747 13 286 1.6 3.2 0.00 0.08 0.00 98 1015.5
20260905104247 13 272 0.0 3.2 0.00 0.08 0.00 98 1015.4
20260905103748 13 274 1.6 3.2 0.00 0.08 0.00 98 1015.5
20260905103246 13 274 0.0 1.6 0.00 0.08 0.00 98 1015.4
20260905102746 13 274 0.0 3.2 0.00 0.08 0.00 98 1015.4
20260905102246 13 275 1.6 3.2 0.00 0.08 0.00 98 1015.4
20260905101747 13 274 1.6 3.2 0.00 0.08 0.00 98 1015.3
20260905101245 13 272 1.6 3.2 0.00 0.08 0.00 98 1015.4
20260905100746 13 271 0.0 1.6 0.00 0.08 0.00 98 1015.4
20260905100243 14 271 0.0 3.2 0.00 0.08 0.00 98 1015.5
20260905095739 14 271 0.0 3.2 0.00 0.08 0.00 98 1015.4
20260905095239 14 272 1.6 3.2 0.00 0.08 0.00 98 1015.3
20260905094742 14 272 1.6 3.2 0.00 0.08 0.00 98 1015.3
20260905094239 14 271 1.6 4.8 0.00 0.08 0.00 98 1015.2
20260905093740 14 274 3.2 4.8 0.00 0.08 0.00 98 1015.2
20260905093238 14 282 3.2 4.8 0.00 0.08 0.00 98 1015.1
20260905092738 14 276 1.6 4.8 0.00 0.08 0.00 98 1015.2
20260905092236 14 283 3.2 4.8 0.00 0.08 0.00 98 1015.1
20260905091735 14 269 3.2 4.8 0.00 0.08 0.00 98 1015.2
20260905091234 14 278 1.6 3.2 0.00 0.08 0.00 98 1015.2
20260905091000 14 278 1.6 4.8 0.00 0.08 0.00 98 1014.9
20260905090234 14 278 1.6 4.8 0.00 0.08 0.00 98 1014.9
20260905090006 14 279 1.6 3.2 0.00 0.08 0.00 98 1015.1
20260905085233 14 268 1.6 3.2 0.00 0.08 0.00 98 1015.1
20260905084736 14 282 0.0 3.2 0.00 0.08 0.00 98 1014.9
20260905084233 14 282 1.6 3.2 0.00 0.08 0.00 98 1015.1
20260905083732 14 282 1.6 3.2 0.00 0.08 0.00 98 1015.1
20260905083233 14 282 1.6 3.2 0.00 0.08 0.00 97 1015.1
20260905082732 14 282 0.0 3.2 0.00 0.08 0.00 97 1015.1